Home > Weather > St. George > Past weeks

Flag for USA Weather for the Past 2 Weeks in St. George, Utah, USA

Now
84 °F

Sunny.


Feels Like: 81 °F
Forecast: 61 / 86 °F
Wind: 17 mph from South

Location: Saint George

Current Time: May 5, 2016 at 12:35:59 PM

Latest Report: May 5, 2016 at 11:55 AM


Visibility: 10 mi

Pressure: 29.86 "Hg (27.15 "Hg at 842m altitude)

Humidity: 11%

Dew Point: 25 °F

Location of St. GeorgeLocation

Historic Weather in St. George — Graph

°F

St. George Temperature Yesterday

Maximum temperature yesterday: 90 °F (at 2:35 PM)
Minimum temperature yesterday: 59 °F (at 6:35 AM)
Average temperature yesterday: 74 °F

High & Low Weather Summary for the Past Weeks

 TemperatureHumidityPressure
High90 °F (May 4, 2:35 PM)87% (Apr 29, 3:35 AM)30.20 "Hg (Apr 29, 3:35 AM)
Low45 °F (Apr 29, 5:55 AM)10% (Apr 20, 7:35 PM)29.59 "Hg (Apr 25, 4:55 AM)
Average63 °F39%29.90 "Hg
* Reported Apr 20 11:15 AM — May 5 11:35 AM, St. George, Weather by CustomWeather, © 2016

Note: Actual official high and low records may vary slightly from our data, if they occured in-between our weather recording intervals... More about our weather records

Advertising

St. George Weather History for the Previous 24 Hours

Scroll right to see more
 ConditionsComfort  
Time TempWeatherWind HumidityBarometerVisibility
11:35 AM
Thu, May 5
84 °FSunny.22 mph11%29.86 "Hg10 mi
11:15 AM82 °FSunny.21 mph12%29.87 "Hg10 mi
10:55 AM82 °FSunny.20 mph13%29.88 "Hg10 mi
10:35 AM79 °FSunny.13 mph20%29.89 "Hg10 mi
10:15 AM75 °FSunny.6 mph24%29.89 "Hg10 mi
9:55 AM72 °FSunny.6 mph31%29.90 "Hg10 mi
9:35 AM72 °FSunny.7 mph27%29.91 "Hg10 mi
9:15 AM70 °FSunny.8 mph31%29.92 "Hg10 mi
8:55 AM68 °FSunny.6 mph38%29.91 "Hg10 mi
8:35 AM68 °FSunny.7 mph33%29.92 "Hg10 mi
8:15 AM64 °FSunny.No wind43%29.91 "Hg10 mi
7:55 AM63 °FSunny.5 mph45%29.91 "Hg10 mi
7:35 AM61 °FSunny.No wind45%29.90 "Hg10 mi
7:15 AM61 °FClear.7 mph45%29.89 "Hg10 mi
6:55 AM59 °FClear.6 mph48%29.87 "Hg10 mi
6:35 AM59 °FClear.3 mph48%29.87 "Hg10 mi
6:15 AM63 °FClear.7 mph39%29.86 "Hg10 mi
5:55 AM63 °FClear.6 mph42%29.86 "Hg10 mi
5:35 AM63 °FClear.No wind37%29.86 "Hg10 mi
5:15 AM63 °FClear.3 mph37%29.87 "Hg10 mi
4:55 AM64 °FClear.8 mph32%29.87 "Hg10 mi
4:35 AM66 °FClear.7 mph30%29.87 "Hg10 mi
4:15 AM64 °FClear.7 mph37%29.88 "Hg10 mi
3:55 AM63 °FClear.6 mph42%29.88 "Hg10 mi
3:35 AM64 °FClear.3 mph40%29.88 "Hg10 mi
3:15 AM66 °FClear.3 mph35%29.88 "Hg10 mi
2:55 AM66 °FClear.5 mph35%29.89 "Hg10 mi
2:35 AM64 °FClear.7 mph37%29.89 "Hg10 mi
2:15 AM68 °FClear.3 mph30%29.89 "Hg10 mi
1:55 AM68 °FClear.7 mph33%29.89 "Hg10 mi
1:35 AM66 °FClear.5 mph35%29.89 "Hg10 mi
1:15 AM68 °FClear.8 mph33%29.90 "Hg10 mi
12:55 AM70 °FClear.3 mph31%29.90 "Hg10 mi
12:35 AM68 °FClear.8 mph33%29.90 "Hg10 mi
12:15 AM70 °FClear.7 mph31%29.90 "Hg10 mi
11:55 PM
Wed, May 4
68 °FClear.7 mph33%29.90 "Hg10 mi
11:35 PM70 °FClear.7 mph31%29.90 "Hg10 mi
11:15 PM70 °FClear.6 mph31%29.89 "Hg10 mi
10:55 PM72 °FClear.9 mph27%29.89 "Hg10 mi
10:35 PM72 °FClear.3 mph29%29.89 "Hg10 mi
10:15 PM72 °FClear.6 mph31%29.89 "Hg10 mi
9:55 PM75 °FClear.6 mph25%29.88 "Hg10 mi
9:35 PM79 °FClear.No wind21%29.87 "Hg10 mi
9:15 PM81 °FSunny.No wind18%29.86 "Hg10 mi
8:55 PM81 °FSunny.3 mph17%29.85 "Hg10 mi
8:35 PM82 °FSunny.6 mph16%29.85 "Hg10 mi
8:15 PM82 °FSunny.5 mph16%29.85 "Hg10 mi
7:55 PM84 °FSunny.8 mph14%29.85 "Hg10 mi
7:35 PM84 °FSunny.9 mph14%29.85 "Hg10 mi
7:15 PM84 °FSunny.12 mph14%29.84 "Hg10 mi
6:55 PM86 °FSunny.13 mph13%29.84 "Hg10 mi
6:35 PM88 °FSunny.12 mph13%29.85 "Hg10 mi
6:15 PM88 °FSunny.14 mph13%29.85 "Hg10 mi
5:55 PM88 °FSunny.15 mph13%29.86 "Hg10 mi
5:35 PM88 °FSunny.12 mph13%29.86 "Hg10 mi
5:15 PM88 °FSunny.12 mph13%29.87 "Hg10 mi
4:55 PM88 °FSunny.6 mph13%29.87 "Hg10 mi
4:35 PM88 °FSunny.15 mph13%29.88 "Hg10 mi
4:15 PM88 °FSunny.14 mph13%29.89 "Hg10 mi
3:55 PM90 °FSunny.15 mph12%29.90 "Hg10 mi
3:35 PM88 °FSunny.10 mph13%29.91 "Hg10 mi
3:15 PM88 °FSunny.10 mph13%29.92 "Hg10 mi
2:55 PM90 °FSunny.13 mph12%29.92 "Hg10 mi
2:35 PM90 °FSunny.8 mph11%29.93 "Hg10 mi
2:15 PM88 °FSunny.6 mph12%29.94 "Hg10 mi
1:55 PM86 °FSunny.9 mph14%29.95 "Hg10 mi
1:35 PM84 °FSunny.No wind18%29.96 "Hg10 mi
1:15 PM84 °FSunny.No wind19%29.97 "Hg10 mi
12:55 PM82 °FSunny.5 mph20%29.99 "Hg10 mi
12:35 PM82 °FSunny.7 mph21%30.00 "Hg10 mi
12:15 PM81 °FSunny.8 mph21%30.01 "Hg10 mi
Weather by CustomWeather, © 2016

See weather overviewHow to use our weather pages